[[{"header":{"parameterUnit":"m.s-1","parameterCategory":1,"la1":30.2991,"la2":30.254,"lo1":-89.0895,"lo2":-89.0444,"dy":0.0017,"dx":0.0017,"nx":28,"ny":28,"refTime":"2024-04-12T09:00:00:Z","depth":0,"parameterNumber":2,"parameterNumberName":"U-component_of_WINDS"},"data":[0,0,0,0,0,0,0,0,0,0,0,0,0,0,0,0,0,0,0,0,0,0,0,0,0,0,0,0,0,0,0,0,0,0,0,0,0,0,0,0,0,0,0,0,0,0,0,0,0,0,0,0,0,0,0,0,0,0,0.9603,0.9604,0,0.9683,0.9684,0.9685,0.9722,0.9722,0.9722,0.9722,0.9801,0.9803,0.9806,0,0,0,0,0,0,0,0,0,0,0,0,0,0.9479,0.9481,0.9603,0.9604,0.9605,0.9683,0.9684,0.9685,0.9722,0.9722,0.9722,0.9722,0.9801,0.9803,0.9806,0,0,0,0,0,0,0,0,0,0,0,0,0,0.9543,0.9482,0.9603,0.9633,0.9636,0.9683,0.9684,0.9686,0.9722,0.9722,0.9722,0.9722,0.98,0.9803,0.9806,0.9828,0,0,0.9816,0.9818,0,0,0,0,0,0,0,0,0.954,0.9548,0.9628,0.9631,0.9635,0.9693,0.967,0.9733,0.9722,0.9689,0.9722,0.9721,0.9765,0.9771,0.9786,0.9832,0.9835,0.9816,0.9818,0.982,0.9821,0,0,0,0,0,0,0,0.9535,0.9544,0.9635,0.9629,0.9633,0.9641,0.965,0.9682,0.9727,0.9692,0.9695,0.9704,0.9767,0.9783,0.9788,0.9837,0.9816,0.9819,0.9821,0.9823,0.9903,0.9903,0,0,0,0,0,0,0.9526,0.9541,0.9632,0.9637,0.9586,0.9644,0.9654,0.9674,0.9726,0.9734,0.9704,0.9705,0.9777,0.9785,0.9791,0.982,0.982,0.9823,0.9825,0.9903,0.9903,0.9903,0,0,0,0,0,0,0.9523,0.9534,0.9629,0.959,0.9602,0.9646,0.9668,0.9676,0.9692,0.9736,0.9743,0.9712,0.9778,0.9787,0.9819,0.9823,0.9824,0.9827,0.9902,0.9903,0.9903,0.9878,0,0,0,0,0,0,0.952,0.9533,0.9543,0.959,0.9604,0.9656,0.9669,0.9677,0.9698,0.97,0.9745,0.9753,0.9778,0.9814,0.9822,0.9828,0.983,0.9902,0.9903,0.9903,0.9878,0.9877,0.9876,0,0,0,0,0,0.9515,0.9532,0.9543,0.9554,0.9618,0.9656,0.9665,0.9694,0.9698,0.9707,0.9735,0.9751,0.9821,0.9816,0.9826,0.9833,0.9902,0.9902,0.9903,0.9879,0.9877,0.9876,0,0,0,0,0,0,0.9484,0.9539,0.9552,0.9585,0.9615,0.9662,0.9676,0.9692,0.9722,0.9723,0.9758,0.9767,0.9796,0.9818,0.9811,0.9857,0.9863,0.9865,0.9841,0.984,0.9839,0.9834,0.9833,0,0,0,0,0,0.9481,0.9509,0.9555,0.9579,0.9594,0.9632,0.965,0.967,0.9703,0.9716,0.9746,0.9777,0.9806,0.9824,0.9853,0.9881,0.9891,0.9891,0.989,0.9888,0.989,0.9905,0.9905,0.9904,0.9904,0.9904,0,0,0.9475,0.9509,0.9524,0.9574,0.96,0.9627,0.9643,0.9671,0.9691,0.972,0.9752,0.9775,0.9812,0.9841,0.9856,0.986,0.9892,0.9889,0.9888,0.989,0.9906,0.9906,0.9906,0.9905,0.9904,0.9904,0,0,0.9478,0.9507,0.953,0.9556,0.9596,0.962,0.9625,0.967,0.9686,0.9719,0.9741,0.9765,0.9814,0.9839,0.9858,0.9868,0.9884,0.9876,0.9871,0.9885,0.9885,0.9885,0.9888,0.9889,0.9878,0.9878,0.9878,0,0.9466,0.9508,0.954,0.9566,0.9587,0.9615,0.9638,0.9661,0.9708,0.9721,0.9725,0.9787,0.9813,0.9849,0.9851,0.9866,0.9872,0.9872,0.9883,0.9883,0.9884,0.9887,0.9888,0.9877,0.9877,0.9877,0.9877,0,0.949,0.9519,0.9533,0.9578,0.96,0.9624,0.9658,0.9677,0.9694,0.9718,0.975,0.9782,0.9818,0.9828,0.9845,0.9865,0.9867,0.9876,0.9884,0.9882,0.9886,0.9888,0.9875,0.9875,0.9876,0.9876,0,0,0.9478,0.9538,0.9543,0.9563,0.9608,0.963,0.9655,0.969,0.9705,0.9736,0.9757,0.9797,0.9806,0.9827,0.9847,0.986,0.9865,0.9868,0.9869,0.9866,0.9888,0.988,0.9881,0.9875,0.9876,0.9876,0.9885,0,0.9487,0.9534,0.9562,0.9597,0.9623,0.9649,0.9671,0.97,0.9722,0.9747,0.9771,0.9799,0.9809,0.9822,0.9835,0.9861,0.987,0.9861,0.9895,0.9895,0.9885,0.9884,0.9876,0.9883,0.9886,0.9887,0.9887,0,0.9504,0.9534,0.9572,0.9613,0.9625,0.9644,0.9678,0.9701,0.9734,0.9749,0.9772,0.9792,0.9818,0.9823,0.9858,0.9852,0.9867,0.9881,0.9882,0.9887,0.9891,0.9888,0.9886,0.9887,0.989,0.9889,0.9889,0,0.949,0.954,0.9569,0.9586,0.9634,0.9647,0.9667,0.97,0.9719,0.9748,0.976,0.9792,0.9809,0.9832,0.9859,0.986,0.9892,0.9899,0.9904,0.9904,0.991,0.9909,0.9911,0.992,0.992,0.992,0.992,0,0.9498,0.9519,0.9564,0.9581,0.9606,0.9637,0.9661,0.9683,0.9712,0.9733,0.9757,0.9777,0.9812,0.9835,0.9857,0.9882,0.989,0.9902,0.9908,0.99,0.9899,0.9911,0.9911,0.992,0.992,0.992,0.992,0,0.9487,0.9517,0.955,0.9593,0.9604,0.9621,0.9657,0.9674,0.9697,0.9724,0.9732,0.9768,0.9797,0.9826,0.9865,0.9879,0.9904,0.9911,0.9893,0.9896,0.99,0.9899,0.9909,0.9912,0.9919,0.9918,0.9918,0,0.949,0.9507,0.9552,0.9568,0.9588,0.9614,0.9634,0.9664,0.9683,0.9721,0.9733,0.9764,0.979,0.9834,0.9863,0.9893,0.9901,0.9902,0.9906,0.9897,0.9901,0.9899,0.9901,0.9901,0.9901,0.9901,0.9901,0,0.9491,0.9505,0.9532,0.9564,0.9587,0.9613,0.9641,0.9653,0.9688,0.9708,0.9738,0.9758,0.9797,0.9827,0.9859,0.9879,0.9895,0.9899,0.9902,0.9895,0.9883,0.9889,0.989,0.9899,0.9899,0.9899,0.9899,0.9899,0.9487,0.9503,0.9537,0.9566,0.959,0.9615,0.9633,0.9658,0.9684,0.9718,0.9734,0.9764,0.9795,0.984,0.9859,0.9882,0.9887,0.9891,0.9892,0.9893,0.9891,0.9879,0.9888,0.9888,0.9888,0.9888,0.9889,0,0.949,0.9512,0.9539,0.9576,0.9599,0.9612,0.9643,0.966,0.9686,0.9714,0.9739,0.9772,0.9801,0.9831,0.9861,0.9873,0.9881,0.988,0.988,0.9884,0.9885,0.988,0.9873,0.9873,0.9873,0.9873,0.9873,0.9873,0.9494,0.9522,0.9539,0.9579,0.9601,0.9631,0.9647,0.9669,0.9691,0.9727,0.9751,0.9771,0.9799,0.9831,0.9857,0.9866,0.9875,0.9872,0.9882,0.9883,0.9884,0.9885,0.988,0.9874,0.9874,0.9879,0.9879,0.9879]},{"header":{"parameterUnit":"m.s-1","parameterCategory":1,"la1":30.2991,"la2":30.254,"lo1":-89.0895,"lo2":-89.0444,"dy":0.0017,"dx":0.0017,"nx":28,"ny":28,"refTime":"2024-04-12T09:00:00:Z","depth":0,"parameterNumber":3,"parameterNumberName":"V-component_of_WINDS"},"data":[0,0,0,0,0,0,0,0,0,0,0,0,0,0,0,0,0,0,0,0,0,0,0,0,0,0,0,0,0,0,0,0,0,0,0,0,0,0,0,0,0,0,0,0,0,0,0,0,0,0,0,0,0,0,0,0,0,0,4.1285,4.1285,0,4.1255,4.1255,4.1255,4.118,4.1178,4.1176,4.1175,4.1146,4.1147,4.1148,0,0,0,0,0,0,0,0,0,0,0,0,0,4.1279,4.1279,4.1285,4.1285,4.1284,4.1255,4.1255,4.1254,4.118,4.1178,4.1176,4.1174,4.1146,4.1147,4.1148,0,0,0,0,0,0,0,0,0,0,0,0,0,4.1268,4.1279,4.1285,4.1243,4.1239,4.1255,4.1255,4.1254,4.118,4.1178,4.1175,4.1173,4.1146,4.1147,4.1148,4.1203,0,0,4.1151,4.1152,0,0,0,0,0,0,0,0,4.1269,4.1269,4.125,4.1246,4.1242,4.1219,4.1242,4.1237,4.1181,4.1203,4.1175,4.1172,4.1172,4.1171,4.1171,4.1201,4.12,4.1151,4.1152,4.1153,4.1153,0,0,0,0,0,0,0,4.127,4.127,4.1273,4.125,4.1245,4.1227,4.1223,4.1241,4.1201,4.1201,4.1195,4.1193,4.117,4.117,4.117,4.12,4.1151,4.1152,4.1153,4.1153,4.1273,4.1275,0,0,0,0,0,0,4.1276,4.1271,4.1274,4.1272,4.125,4.1229,4.1224,4.1228,4.1201,4.1194,4.1195,4.1189,4.1169,4.1169,4.1168,4.123,4.1153,4.1154,4.1154,4.127,4.1273,4.1276,0,0,0,0,0,0,4.1277,4.1277,4.1275,4.127,4.1268,4.1231,4.1237,4.1229,4.1229,4.1196,4.1189,4.1202,4.1167,4.1167,4.1194,4.1228,4.1154,4.1155,4.1267,4.1271,4.1274,4.1353,0,0,0,0,0,0,4.1277,4.1278,4.1298,4.1271,4.1269,4.1301,4.1239,4.123,4.1231,4.1224,4.1201,4.1195,4.1166,4.1193,4.1195,4.1228,4.1156,4.1264,4.1269,4.1273,4.1348,4.1359,4.1369,0,0,0,0,0,4.1277,4.1322,4.1299,4.13,4.1293,4.1303,4.1302,4.1266,4.1234,4.1254,4.1233,4.1196,4.1224,4.1197,4.1199,4.1232,4.1262,4.1267,4.1273,4.1343,4.1357,4.1369,0,0,0,0,0,0,4.1354,4.1317,4.1292,4.133,4.132,4.1291,4.1315,4.1283,4.1283,4.1276,4.1232,4.1228,4.1261,4.1249,4.1219,4.1283,4.1237,4.1243,4.1289,4.1303,4.1313,4.1315,4.1157,0,0,0,0,0,4.1376,4.1387,4.1354,4.1391,4.1387,4.1352,4.1355,4.1328,4.1317,4.1313,4.1294,4.1285,4.1291,4.1296,4.1301,4.1346,4.134,4.137,4.1381,4.139,4.1396,4.1418,4.1431,4.1294,4.1294,4.1294,0,0,4.142,4.1401,4.1411,4.1406,4.1395,4.1408,4.1349,4.1365,4.1374,4.1315,4.134,4.1326,4.1313,4.1349,4.1364,4.134,4.1432,4.1397,4.1405,4.1405,4.1425,4.1438,4.145,4.1298,4.1298,4.1297,0,0,4.1507,4.1494,4.1523,4.1513,4.1498,4.1474,4.1481,4.1457,4.1445,4.1468,4.1424,4.1435,4.1448,4.144,4.1438,4.1522,4.1488,4.1525,4.1582,4.1604,4.1615,4.1624,4.1654,4.1665,4.1531,4.1531,4.1531,0,4.1564,4.1581,4.1542,4.156,4.1559,4.1506,4.1535,4.1528,4.1515,4.1516,4.1489,4.1503,4.1491,4.1524,4.1545,4.1545,4.1552,4.1527,4.1616,4.1625,4.1633,4.1661,4.1672,4.1536,4.1535,4.1535,4.1534,0,4.1652,4.1664,4.1689,4.1677,4.1679,4.1703,4.1667,4.1674,4.1648,4.1627,4.1652,4.1635,4.1635,4.1641,4.1616,4.1671,4.1657,4.1624,4.1577,4.1652,4.1677,4.1687,4.1542,4.154,4.1539,4.1538,0,0,4.1786,4.1752,4.1761,4.1755,4.1734,4.1743,4.1765,4.1764,4.1771,4.1764,4.1781,4.1793,4.1762,4.176,4.1733,4.1753,4.182,4.1717,4.1717,4.1736,4.188,4.1904,4.1916,4.1798,4.18,4.1801,4.188,0,4.1867,4.19,4.1866,4.1907,4.1918,4.1868,4.1887,4.1876,4.1858,4.1865,4.1845,4.1854,4.1813,4.1811,4.1829,4.1808,4.1848,4.1802,4.1813,4.1814,4.1817,4.193,4.1955,4.203,4.189,4.1892,4.1893,0,4.1965,4.1962,4.2004,4.1981,4.1984,4.2001,4.1997,4.2005,4.1992,4.1977,4.1975,4.1943,4.1962,4.1917,4.1944,4.1913,4.1916,4.1907,4.1909,4.1907,4.1857,4.193,4.2053,4.2064,4.1908,4.1907,4.1906,0,4.2058,4.2065,4.209,4.2087,4.206,4.2073,4.2063,4.2048,4.2049,4.2047,4.2047,4.2047,4.2047,4.2048,4.2016,4.1986,4.2047,4.1999,4.2035,4.2036,4.2049,4.2048,4.2173,4.2053,4.2053,4.2053,4.2052,0,4.2151,4.2179,4.2131,4.2147,4.2176,4.2137,4.2167,4.2152,4.2139,4.2151,4.2109,4.2121,4.2079,4.2088,4.2063,4.2089,4.2089,4.2078,4.2071,4.2081,4.2082,4.2081,4.2075,4.2056,4.2055,4.2054,4.2054,0,4.2259,4.2228,4.2252,4.2225,4.2219,4.2242,4.2218,4.2232,4.2211,4.2227,4.2229,4.2196,4.2204,4.2173,4.2175,4.2159,4.2196,4.2181,4.22,4.2195,4.2233,4.2229,4.236,4.2375,4.2247,4.2248,4.2249,0,4.232,4.2339,4.2314,4.2319,4.231,4.2319,4.232,4.2282,4.2285,4.2273,4.2288,4.2292,4.2293,4.2307,4.2284,4.2286,4.227,4.2315,4.227,4.2279,4.2269,4.2268,4.2269,4.2325,4.2326,4.2328,4.2329,0,4.2431,4.2414,4.2417,4.2415,4.2418,4.2414,4.2408,4.2415,4.2374,4.238,4.2387,4.2388,4.239,4.2394,4.2391,4.2381,4.2348,4.2344,4.2352,4.2361,4.2371,4.2365,4.2225,4.234,4.2339,4.2338,4.2338,4.2337,4.2516,4.2531,4.2515,4.252,4.2511,4.2506,4.2518,4.2498,4.2503,4.2501,4.2479,4.249,4.2477,4.2469,4.2463,4.2471,4.2449,4.2462,4.2464,4.2468,4.2474,4.2371,4.247,4.247,4.247,4.2469,4.2469,0,4.2624,4.2611,4.2616,4.2608,4.2612,4.2581,4.2573,4.2578,4.2588,4.2578,4.258,4.2588,4.2592,4.257,4.2571,4.2582,4.2567,4.2583,4.2581,4.2579,4.2493,4.2486,4.2595,4.2595,4.2595,4.2595,4.2595,4.2595,4.268,4.2703,4.2686,4.2704,4.2692,4.2702,4.2699,4.2695,4.2687,4.2698,4.27,4.2686,4.2671,4.2671,4.2673,4.2666,4.2668,4.269,4.2678,4.2598,4.2586,4.2574,4.2566,4.2691,4.2691,4.2763,4.2764,4.2764]}]]